User: anonymous   Login
Location: Fontevrault
(47.1823°N, 0.0493°E)
Time: 17:01:01
(UTC+00:00)
Language:

Cosmos 1455 - Orbit

View from above orbital plane
View from above orbital plane
View from above satellite
View from above satellite

Ground track
Ground track

The orbit data is extracted from the following two-line orbital elements,

1 14032U 83037A   21268.94972781  .00001547  00000-0  72125-4 0  9995
2 14032  82.5178 342.8180 0015275 244.2501 115.7157 15.19033685 98305
Epoch (UTC): 25 September 2021 22:47:36
Eccentricity: 0.0015275
inclination: 82.5178°
perigee height: 498 km
apogee height: 519 km
right ascension of ascending node: 342.8180°
argument of perigee: 244.2501°
revolutions per day: 15.19033685
mean anomaly at epoch: 115.7157°
orbit number at epoch: 9830

The dashed part of the orbit path shows where the satellite is in the earth's shadow,  

DLR